Time,TemperatureF,DewpointF,PressureIn,WindDirection,WindDirectionDegrees,WindSpeedMPH,WindSpeedGustMPH,Humidity,HourlyPrecipIn,Conditions,Clouds,dailyrainin,SoftwareType,DateUTC
2013-07-02 00:03:00,67.4,53.0,29.88,SSW,196,0.0,1.0,60,0.00,,,0.00,WeatherTracker,2013-07-02 07:03:00,
2013-07-02 00:08:00,66.4,54.7,29.88,SSW,196,3.0,0.0,66,0.00,,,0.00,WeatherTracker,2013-07-02 07:08:00,
2013-07-02 00:13:00,64.7,54.3,29.88,SE,144,1.0,3.0,69,0.00,,,0.00,WeatherTracker,2013-07-02 07:13:00,
2013-07-02 00:18:00,63.8,53.8,29.88,SE,144,0.0,5.0,70,0.00,,,0.00,WeatherTracker,2013-07-02 07:18:00,
2013-07-02 00:23:00,63.3,54.5,29.88,SE,144,0.0,5.0,73,0.00,,,0.00,WeatherTracker,2013-07-02 07:23:00,
2013-07-02 00:28:00,63.1,54.3,29.88,SE,144,0.0,0.0,73,0.00,,,0.00,WeatherTracker,2013-07-02 07:28:00,
2013-07-02 00:33:00,62.9,54.1,29.88,SE,144,0.0,2.0,73,0.00,,,0.00,WeatherTracker,2013-07-02 07:33:00,
2013-07-02 00:38:00,62.5,54.1,29.89,SE,144,0.0,2.0,74,0.00,,,0.00,WeatherTracker,2013-07-02 07:38:00,
2013-07-02 00:44:00,62.2,54.5,29.89,SE,144,1.0,2.0,76,0.00,,,0.00,WeatherTracker,2013-07-02 07:44:00,
2013-07-02 00:49:00,61.8,54.2,29.89,SE,145,2.0,3.0,76,0.00,,,0.00,WeatherTracker,2013-07-02 07:49:00,
2013-07-02 00:54:00,61.7,53.3,29.89,SE,145,0.0,4.0,74,0.00,,,0.00,WeatherTracker,2013-07-02 07:54:00,
2013-07-02 00:59:00,61.9,53.5,29.88,SE,145,0.0,4.0,74,0.00,,,0.00,WeatherTracker,2013-07-02 07:59:00,
2013-07-02 01:04:00,62.4,52.5,29.88,SE,146,0.0,3.0,70,0.00,,,0.00,WeatherTracker,2013-07-02 08:04:00,
2013-07-02 01:09:00,62.9,53.0,29.88,SE,145,0.0,3.0,70,0.00,,,0.00,WeatherTracker,2013-07-02 08:09:00,
2013-07-02 01:14:00,63.0,53.8,29.88,SE,144,0.0,3.0,72,0.00,,,0.00,WeatherTracker,2013-07-02 08:14:00,
2013-07-02 01:19:00,62.1,53.7,29.88,SSE,147,2.0,3.0,74,0.00,,,0.00,WeatherTracker,2013-07-02 08:19:00,
2013-07-02 01:24:00,61.5,53.5,29.88,SSE,148,1.0,4.0,75,0.00,,,0.00,WeatherTracker,2013-07-02 08:24:00,
2013-07-02 01:29:00,61.8,53.8,29.88,ESE,119,2.0,4.0,75,0.00,,,0.00,WeatherTracker,2013-07-02 08:29:00,
2013-07-02 01:34:00,61.5,53.5,29.88,ESE,120,0.0,4.0,75,0.00,,,0.00,WeatherTracker,2013-07-02 08:34:00,
2013-07-02 01:39:00,60.8,53.5,29.88,SE,125,3.0,4.0,77,0.00,,,0.00,WeatherTracker,2013-07-02 08:39:00,
2013-07-02 01:44:00,60.7,53.4,29.88,NNW,330,3.0,4.0,77,0.00,,,0.00,WeatherTracker,2013-07-02 08:44:00,
2013-07-02 01:49:00,59.5,52.6,29.88,NNW,330,3.0,5.0,78,0.00,,,0.00,WeatherTracker,2013-07-02 08:49:00,
2013-07-02 01:54:00,59.0,52.5,29.88,NNW,330,0.0,5.0,79,0.00,,,0.00,WeatherTracker,2013-07-02 08:54:00,
2013-07-02 01:59:00,59.4,52.9,29.87,NNW,330,0.0,4.0,79,0.00,,,0.00,WeatherTracker,2013-07-02 08:59:00,
2013-07-02 02:04:00,60.1,53.2,29.87,NNW,330,0.0,1.0,78,0.00,,,0.00,WeatherTracker,2013-07-02 09:04:00,
2013-07-02 02:09:00,60.4,53.5,29.87,NNW,330,0.0,3.0,78,0.00,,,0.00,WeatherTracker,2013-07-02 09:09:00,
2013-07-02 02:14:00,60.3,53.4,29.88,NNW,330,0.0,3.0,78,0.00,,,0.00,WeatherTracker,2013-07-02 09:14:00,
2013-07-02 02:19:00,60.3,54.1,29.88,NNW,330,2.0,2.0,80,0.00,,,0.00,WeatherTracker,2013-07-02 09:19:00,
2013-07-02 02:24:00,60.4,53.9,29.88,NNW,329,0.0,3.0,79,0.00,,,0.00,WeatherTracker,2013-07-02 09:24:00,
2013-07-02 02:29:00,60.2,53.7,29.88,NNW,329,3.0,4.0,79,0.00,,,0.00,WeatherTracker,2013-07-02 09:29:00,
2013-07-02 02:34:00,60.0,53.5,29.88,NNW,327,2.0,5.0,79,0.00,,,0.00,WeatherTracker,2013-07-02 09:34:00,
2013-07-02 02:39:00,60.0,53.1,29.88,NNW,327,0.0,5.0,78,0.00,,,0.00,WeatherTracker,2013-07-02 09:39:00,
2013-07-02 02:44:00,60.2,53.7,29.88,NNW,327,0.0,4.0,79,0.00,,,0.00,WeatherTracker,2013-07-02 09:44:00,
2013-07-02 02:50:00,60.4,53.9,29.88,NNW,327,0.0,0.0,79,0.00,,,0.00,WeatherTracker,2013-07-02 09:50:00,
2013-07-02 02:55:00,61.1,53.5,29.87,WNW,287,3.0,5.0,76,0.00,,,0.00,WeatherTracker,2013-07-02 09:55:00,
2013-07-02 03:00:00,62.4,52.9,29.87,WNW,287,3.0,5.0,71,0.00,,,0.00,WeatherTracker,2013-07-02 10:00:00,
2013-07-02 03:05:00,63.9,53.1,29.86,WNW,287,0.0,4.0,68,0.00,,,0.00,WeatherTracker,2013-07-02 10:05:00,
2013-07-02 03:10:00,64.6,53.8,29.86,WNW,287,0.0,4.0,68,0.00,,,0.00,WeatherTracker,2013-07-02 10:10:00,
2013-07-02 03:15:00,64.3,53.9,29.86,WNW,287,0.0,3.0,69,0.00,,,0.00,WeatherTracker,2013-07-02 10:15:00,
2013-07-02 03:20:00,63.9,53.9,29.86,WNW,287,0.0,3.0,70,0.00,,,0.00,WeatherTracker,2013-07-02 10:20:00,
2013-07-02 03:25:00,63.2,54.4,29.87,WNW,287,2.0,3.0,73,0.00,,,0.00,WeatherTracker,2013-07-02 10:25:00,
2013-07-02 03:30:00,62.7,54.7,29.86,WNW,287,3.0,3.0,75,0.00,,,0.00,WeatherTracker,2013-07-02 10:30:00,
2013-07-02 03:35:00,62.5,54.8,29.87,South,171,2.0,5.0,76,0.00,,,0.00,WeatherTracker,2013-07-02 10:35:00,
2013-07-02 03:40:00,61.8,54.9,29.87,South,171,0.0,5.0,78,0.00,,,0.00,WeatherTracker,2013-07-02 10:40:00,
2013-07-02 03:45:00,61.5,54.6,29.86,South,171,2.0,3.0,78,0.00,,,0.00,WeatherTracker,2013-07-02 10:45:00,
2013-07-02 03:50:00,61.4,54.1,29.86,South,171,0.0,3.0,77,0.00,,,0.00,WeatherTracker,2013-07-02 10:50:00,
2013-07-02 03:55:00,61.4,54.1,29.86,South,171,0.0,3.0,77,0.00,,,0.00,WeatherTracker,2013-07-02 10:55:00,
2013-07-02 04:00:00,61.5,54.2,29.86,South,171,0.0,1.0,77,0.00,,,0.00,WeatherTracker,2013-07-02 11:00:00,
2013-07-02 04:05:00,61.6,54.7,29.87,South,171,2.0,0.0,78,0.00,,,0.00,WeatherTracker,2013-07-02 11:05:00,
2013-07-02 04:10:00,61.5,54.2,29.87,South,171,0.0,3.0,77,0.00,,,0.00,WeatherTracker,2013-07-02 11:10:00,
2013-07-02 04:15:00,61.5,54.2,29.87,South,171,0.0,3.0,77,0.00,,,0.00,WeatherTracker,2013-07-02 11:15:00,
2013-07-02 04:20:00,61.4,54.5,29.87,South,171,0.0,2.0,78,0.00,,,0.00,WeatherTracker,2013-07-02 11:20:00,
2013-07-02 04:25:00,61.3,54.4,29.87,South,171,0.0,3.0,78,0.00,,,0.00,WeatherTracker,2013-07-02 11:25:00,
2013-07-02 04:30:00,61.2,53.9,29.86,South,171,0.0,3.0,77,0.00,,,0.00,WeatherTracker,2013-07-02 11:30:00,
2013-07-02 04:35:00,61.5,54.2,29.87,South,171,0.0,2.0,77,0.00,,,0.00,WeatherTracker,2013-07-02 11:35:00,
2013-07-02 04:40:00,61.6,54.7,29.86,South,171,0.0,2.0,78,0.00,,,0.00,WeatherTracker,2013-07-02 11:40:00,
2013-07-02 04:45:00,61.4,54.5,29.86,South,171,0.0,2.0,78,0.00,,,0.00,WeatherTracker,2013-07-02 11:45:00,
2013-07-02 04:51:00,61.2,54.3,29.86,South,171,0.0,4.0,78,0.00,,,0.00,WeatherTracker,2013-07-02 11:51:00,
2013-07-02 04:56:00,61.4,54.1,29.86,South,171,0.0,4.0,77,0.00,,,0.00,WeatherTracker,2013-07-02 11:56:00,
2013-07-02 05:01:00,61.7,54.4,29.86,South,171,0.0,3.0,77,0.00,,,0.00,WeatherTracker,2013-07-02 12:01:00,
2013-07-02 05:06:00,61.7,54.4,29.86,South,171,0.0,1.0,77,0.00,,,0.00,WeatherTracker,2013-07-02 12:06:00,
2013-07-02 05:11:00,61.8,54.2,29.86,South,171,0.0,2.0,76,0.00,,,0.00,WeatherTracker,2013-07-02 12:11:00,
2013-07-02 05:16:00,61.8,54.5,29.86,South,171,2.0,2.0,77,0.00,,,0.00,WeatherTracker,2013-07-02 12:16:00,
2013-07-02 05:21:00,61.5,54.9,29.86,SW,214,2.0,6.0,79,0.00,,,0.00,WeatherTracker,2013-07-02 12:21:00,
2013-07-02 05:26:00,61.2,54.6,29.86,SW,214,0.0,6.0,79,0.00,,,0.00,WeatherTracker,2013-07-02 12:26:00,
2013-07-02 05:31:00,61.2,54.3,29.86,SW,214,3.0,4.0,78,0.00,,,0.00,WeatherTracker,2013-07-02 12:31:00,
2013-07-02 05:36:00,61.4,54.5,29.86,SSW,196,2.0,4.0,78,0.00,,,0.00,WeatherTracker,2013-07-02 12:36:00,
2013-07-02 05:41:00,61.1,55.2,29.86,ESE,113,1.0,5.0,81,0.00,,,0.00,WeatherTracker,2013-07-02 12:41:00,
2013-07-02 05:46:00,60.6,55.1,29.86,SE,142,2.0,5.0,82,0.00,,,0.00,WeatherTracker,2013-07-02 12:46:00,
2013-07-02 05:51:00,60.3,54.8,29.86,SE,142,0.0,4.0,82,0.00,,,0.00,WeatherTracker,2013-07-02 12:51:00,
2013-07-02 05:56:00,60.2,54.7,29.86,SE,142,0.0,3.0,82,0.00,,,0.00,WeatherTracker,2013-07-02 12:56:00,
2013-07-02 06:01:00,60.2,54.3,29.86,SE,142,0.0,1.0,81,0.00,,,0.00,WeatherTracker,2013-07-02 13:01:00,
2013-07-02 06:06:00,60.5,54.6,29.86,SE,142,0.0,0.0,81,0.00,,,0.00,WeatherTracker,2013-07-02 13:06:00,
2013-07-02 06:11:00,60.7,54.5,29.86,SE,142,0.0,0.0,80,0.00,,,0.00,WeatherTracker,2013-07-02 13:11:00,
2013-07-02 06:16:00,61.0,54.8,29.86,SE,142,0.0,1.0,80,0.00,,,0.00,WeatherTracker,2013-07-02 13:16:00,
2013-07-02 06:21:00,61.2,55.0,29.86,ESE,111,4.0,4.0,80,0.00,,,0.00,WeatherTracker,2013-07-02 13:21:00,
2013-07-02 06:27:00,61.4,55.2,29.87,ESE,110,2.0,5.0,80,0.00,,,0.00,WeatherTracker,2013-07-02 13:27:00,
2013-07-02 06:32:00,61.8,55.9,29.87,ESE,117,3.0,5.0,81,0.00,,,0.00,WeatherTracker,2013-07-02 13:32:00,
2013-07-02 06:37:00,62.0,55.8,29.87,South,181,3.0,6.0,80,0.00,,,0.00,WeatherTracker,2013-07-02 13:37:00,
2013-07-02 06:42:00,62.1,55.5,29.87,South,181,0.0,7.0,79,0.00,,,0.00,WeatherTracker,2013-07-02 13:42:00,
2013-07-02 06:47:00,62.4,55.4,29.88,SW,229,0.0,7.0,78,0.00,,,0.00,WeatherTracker,2013-07-02 13:47:00,
2013-07-02 06:52:00,62.8,55.8,29.87,SW,230,0.0,4.0,78,0.00,,,0.00,WeatherTracker,2013-07-02 13:52:00,
2013-07-02 06:57:00,63.0,56.0,29.87,SW,230,0.0,3.0,78,0.00,,,0.00,WeatherTracker,2013-07-02 13:57:00,
2013-07-02 07:02:00,63.4,56.8,29.88,SW,230,2.0,2.0,79,0.00,,,0.00,WeatherTracker,2013-07-02 14:02:00,
2013-07-02 07:07:00,63.5,57.2,29.88,WSW,256,0.0,4.0,80,0.00,,,0.00,WeatherTracker,2013-07-02 14:07:00,
2013-07-02 07:12:00,63.7,57.1,29.88,WSW,256,0.0,4.0,79,0.00,,,0.00,WeatherTracker,2013-07-02 14:12:00,
2013-07-02 07:17:00,64.4,57.4,29.87,WSW,258,0.0,3.0,78,0.00,,,0.00,WeatherTracker,2013-07-02 14:17:00,
2013-07-02 07:22:00,65.2,57.8,29.87,WSW,258,0.0,2.0,77,0.00,,,0.00,WeatherTracker,2013-07-02 14:22:00,
2013-07-02 07:27:00,65.8,58.0,29.88,WSW,258,0.0,2.0,76,0.00,,,0.00,WeatherTracker,2013-07-02 14:27:00,
2013-07-02 07:32:00,66.3,58.1,29.88,WSW,258,0.0,1.0,75,0.00,,,0.00,WeatherTracker,2013-07-02 14:32:00,
2013-07-02 07:37:00,66.5,57.6,29.87,WSW,258,0.0,1.0,73,0.00,,,0.00,WeatherTracker,2013-07-02 14:37:00,
2013-07-02 07:42:00,66.7,58.5,29.88,WSW,258,0.0,0.0,75,0.00,,,0.00,WeatherTracker,2013-07-02 14:42:00,
2013-07-02 07:47:00,66.7,58.5,29.87,WSW,258,0.0,0.0,75,0.00,,,0.00,WeatherTracker,2013-07-02 14:47:00,
2013-07-02 07:52:00,66.7,58.5,29.88,WSW,258,0.0,1.0,75,0.00,,,0.00,WeatherTracker,2013-07-02 14:52:00,
2013-07-02 07:57:00,67.0,58.4,29.88,WSW,258,0.0,1.0,74,0.00,,,0.00,WeatherTracker,2013-07-02 14:57:00,
2013-07-02 08:02:00,67.8,57.6,29.88,WSW,258,0.0,1.0,70,0.00,,,0.00,WeatherTracker,2013-07-02 15:02:00,
2013-07-02 08:07:00,68.9,58.3,29.88,WSW,258,0.0,0.0,69,0.00,,,0.00,WeatherTracker,2013-07-02 15:07:00,
2013-07-02 08:12:00,69.8,57.5,29.88,WSW,258,0.0,0.0,65,0.00,,,0.00,WeatherTracker,2013-07-02 15:12:00,
2013-07-02 08:17:00,70.5,58.2,29.88,WSW,258,0.0,0.0,65,0.00,,,0.00,WeatherTracker,2013-07-02 15:17:00,
2013-07-02 08:22:00,70.8,59.7,29.88,West,262,2.0,2.0,68,0.00,,,0.00,WeatherTracker,2013-07-02 15:22:00,
2013-07-02 08:28:00,71.2,57.9,29.88,NW,308,4.0,4.0,63,0.00,,,0.00,WeatherTracker,2013-07-02 15:28:00,
2013-07-02 08:33:00,72.0,58.3,29.87,NW,308,3.0,5.0,62,0.00,,,0.00,WeatherTracker,2013-07-02 15:33:00,
2013-07-02 08:38:00,72.9,59.1,29.87,NW,308,2.0,5.0,62,0.00,,,0.00,WeatherTracker,2013-07-02 15:38:00,
2013-07-02 08:43:00,73.7,57.0,29.87,NW,308,0.0,5.0,56,0.00,,,0.00,WeatherTracker,2013-07-02 15:43:00,
2013-07-02 08:48:00,74.3,58.1,29.87,NW,308,0.0,5.0,57,0.00,,,0.00,WeatherTracker,2013-07-02 15:48:00,
2013-07-02 08:53:00,74.8,58.0,29.86,NW,307,0.0,4.0,56,0.00,,,0.00,WeatherTracker,2013-07-02 15:53:00,
2013-07-02 08:58:00,75.3,59.0,29.86,NW,307,0.0,4.0,57,0.00,,,0.00,WeatherTracker,2013-07-02 15:58:00,
2013-07-02 09:03:00,76.3,58.9,29.86,NW,307,0.0,4.0,55,0.00,,,0.00,WeatherTracker,2013-07-02 16:03:00,
2013-07-02 09:08:00,77.3,58.3,29.86,NW,307,0.0,4.0,52,0.00,,,0.00,WeatherTracker,2013-07-02 16:08:00,
2013-07-02 09:13:00,78.5,59.9,29.86,NW,308,0.0,3.0,53,0.00,,,0.00,WeatherTracker,2013-07-02 16:13:00,
2013-07-02 09:18:00,79.1,58.8,29.86,NW,308,0.0,3.0,50,0.00,,,0.00,WeatherTracker,2013-07-02 16:18:00,
2013-07-02 09:23:00,79.8,59.5,29.86,NW,308,0.0,3.0,50,0.00,,,0.00,WeatherTracker,2013-07-02 16:23:00,
2013-07-02 09:28:00,80.7,60.9,29.86,NW,313,0.0,2.0,51,0.00,,,0.00,WeatherTracker,2013-07-02 16:28:00,
2013-07-02 09:33:00,81.1,60.7,29.86,NW,312,0.0,2.0,50,0.00,,,0.00,WeatherTracker,2013-07-02 16:33:00,
2013-07-02 09:38:00,81.8,60.2,29.85,NW,312,0.0,2.0,48,0.00,,,0.00,WeatherTracker,2013-07-02 16:38:00,
2013-07-02 09:43:00,82.0,60.3,29.85,NW,312,0.0,1.0,48,0.00,,,0.00,WeatherTracker,2013-07-02 16:43:00,
2013-07-02 09:48:00,82.4,60.1,29.85,NW,312,0.0,1.0,47,0.00,,,0.00,WeatherTracker,2013-07-02 16:48:00,
2013-07-02 09:53:00,83.1,60.8,29.85,NW,312,2.0,2.0,47,0.00,,,0.00,WeatherTracker,2013-07-02 16:53:00,
2013-07-02 09:58:00,83.0,60.1,29.84,NW,313,3.0,3.0,46,0.00,,,0.00,WeatherTracker,2013-07-02 16:58:00,
2013-07-02 10:03:00,82.4,60.1,29.84,NW,314,0.0,6.0,47,0.00,,,0.00,WeatherTracker,2013-07-02 17:03:00,
2013-07-02 10:08:00,82.4,60.1,29.84,NW,314,1.0,6.0,47,0.00,,,0.00,WeatherTracker,2013-07-02 17:08:00,
2013-07-02 10:13:00,82.4,60.7,29.84,NW,314,0.0,4.0,48,0.00,,,0.00,WeatherTracker,2013-07-02 17:13:00,
2013-07-02 10:18:00,82.5,59.6,29.84,NW,314,0.0,4.0,46,0.00,,,0.00,WeatherTracker,2013-07-02 17:18:00,
2013-07-02 10:23:00,83.0,58.2,29.84,NW,314,1.0,2.0,43,0.00,,,0.00,WeatherTracker,2013-07-02 17:23:00,
2013-07-02 10:28:00,84.3,58.0,29.84,NW,314,0.0,4.0,41,0.00,,,0.00,WeatherTracker,2013-07-02 17:28:00,
2013-07-02 10:33:00,85.4,60.3,29.84,NW,314,1.0,4.0,43,0.00,,,0.00,WeatherTracker,2013-07-02 17:33:00,
2013-07-02 10:39:00,86.5,57.8,29.84,NW,314,0.0,3.0,38,0.00,,,0.00,WeatherTracker,2013-07-02 17:39:00,
2013-07-02 10:44:00,87.5,56.4,29.84,NW,314,3.0,3.0,35,0.00,,,0.00,WeatherTracker,2013-07-02 17:44:00,
2013-07-02 10:49:00,87.4,57.1,29.84,NW,314,0.0,4.0,36,0.00,,,0.00,WeatherTracker,2013-07-02 17:49:00,
2013-07-02 10:54:00,87.7,58.9,29.83,NW,314,0.0,4.0,38,0.00,,,0.00,WeatherTracker,2013-07-02 17:54:00,
2013-07-02 10:59:00,88.6,61.1,29.83,NNW,331,3.0,4.0,40,0.00,,,0.00,WeatherTracker,2013-07-02 17:59:00,
2013-07-02 11:04:00,89.1,64.9,29.83,NNW,331,1.0,4.0,45,0.00,,,0.00,WeatherTracker,2013-07-02 18:04:00,
2013-07-02 11:09:00,87.6,58.8,29.83,WSW,258,3.0,4.0,38,0.00,,,0.00,WeatherTracker,2013-07-02 18:09:00,
2013-07-02 11:14:00,86.6,57.9,29.83,West,277,4.0,5.0,38,0.00,,,0.00,WeatherTracker,2013-07-02 18:14:00,
2013-07-02 11:19:00,86.6,57.9,29.82,West,276,1.0,7.0,38,0.00,,,0.00,WeatherTracker,2013-07-02 18:19:00,
2013-07-02 11:24:00,86.6,58.7,29.83,West,273,0.0,7.0,39,0.00,,,0.00,WeatherTracker,2013-07-02 18:24:00,
2013-07-02 11:29:00,87.1,56.1,29.83,WNW,288,4.0,5.0,35,0.00,,,0.00,WeatherTracker,2013-07-02 18:29:00,
2013-07-02 11:34:00,88.2,56.2,29.82,NW,311,3.0,5.0,34,0.00,,,0.00,WeatherTracker,2013-07-02 18:34:00,
2013-07-02 11:39:00,89.0,54.4,29.82,NW,316,0.0,5.0,31,0.00,,,0.00,WeatherTracker,2013-07-02 18:39:00,
2013-07-02 11:44:00,89.4,56.5,29.82,North,360,2.0,5.0,33,0.00,,,0.00,WeatherTracker,2013-07-02 18:44:00,
2013-07-02 11:49:00,90.2,58.0,29.82,North,4,3.0,5.0,34,0.00,,,0.00,WeatherTracker,2013-07-02 18:49:00,
2013-07-02 11:54:00,91.0,58.7,29.82,North,3,1.0,5.0,34,0.00,,,0.00,WeatherTracker,2013-07-02 18:54:00,
2013-07-02 11:59:00,92.1,60.5,29.81,North,10,2.0,4.0,35,0.00,,,0.00,WeatherTracker,2013-07-02 18:59:00,
2013-07-02 12:04:00,92.9,58.6,29.81,North,360,1.0,4.0,32,0.00,,,0.00,WeatherTracker,2013-07-02 19:04:00,
2013-07-02 12:09:00,93.4,61.6,29.81,NNW,339,0.0,4.0,35,0.00,,,0.00,WeatherTracker,2013-07-02 19:09:00,
2013-07-02 12:15:00,94.4,55.2,29.80,NNW,340,1.0,4.0,27,0.00,,,0.00,WeatherTracker,2013-07-02 19:15:00,
2013-07-02 12:20:00,95.0,58.6,29.80,NNW,337,2.0,5.0,30,0.00,,,0.00,WeatherTracker,2013-07-02 19:20:00,
2013-07-02 12:25:00,95.2,54.8,29.80,NW,316,2.0,6.0,26,0.00,,,0.00,WeatherTracker,2013-07-02 19:25:00,
2013-07-02 12:30:00,95.0,55.7,29.80,NW,323,1.0,6.0,27,0.00,,,0.00,WeatherTracker,2013-07-02 19:30:00,
2013-07-02 12:35:00,95.1,54.8,29.80,NNW,343,3.0,6.0,26,0.00,,,0.00,WeatherTracker,2013-07-02 19:35:00,
2013-07-02 12:40:00,95.6,56.2,29.80,North,354,0.0,6.0,27,0.00,,,0.00,WeatherTracker,2013-07-02 19:40:00,
2013-07-02 12:45:00,96.3,55.8,29.79,NNW,339,0.0,4.0,26,0.00,,,0.00,WeatherTracker,2013-07-02 19:45:00,
2013-07-02 12:50:00,96.1,54.5,29.79,North,357,0.0,9.0,25,0.00,,,0.00,WeatherTracker,2013-07-02 19:50:00,
2013-07-02 12:55:00,95.7,53.1,29.79,NNW,333,2.0,9.0,24,0.00,,,0.00,WeatherTracker,2013-07-02 19:55:00,
2013-07-02 13:00:00,95.6,51.8,29.79,NNW,346,0.0,7.0,23,0.00,,,0.00,WeatherTracker,2013-07-02 20:00:00,
2013-07-02 13:05:00,96.0,52.2,29.78,NW,316,4.0,8.0,23,0.00,,,0.00,WeatherTracker,2013-07-02 20:05:00,
2013-07-02 13:10:00,95.7,55.3,29.78,North,351,3.0,8.0,26,0.00,,,0.00,WeatherTracker,2013-07-02 20:10:00,
2013-07-02 13:15:00,95.9,54.4,29.78,NNW,338,1.0,8.0,25,0.00,,,0.00,WeatherTracker,2013-07-02 20:15:00,
2013-07-02 13:20:00,96.9,56.3,29.78,North,354,0.0,5.0,26,0.00,,,0.00,WeatherTracker,2013-07-02 20:20:00,
2013-07-02 13:25:00,98.1,53.9,29.77,North,4,2.0,4.0,23,0.00,,,0.00,WeatherTracker,2013-07-02 20:25:00,
2013-07-02 13:30:00,98.8,53.3,29.77,NNW,339,3.0,4.0,22,0.00,,,0.00,WeatherTracker,2013-07-02 20:30:00,
2013-07-02 13:35:00,98.8,56.8,29.77,NNE,28,1.0,4.0,25,0.00,,,0.00,WeatherTracker,2013-07-02 20:35:00,
2013-07-02 13:40:00,99.0,57.0,29.77,NNE,28,0.0,4.0,25,0.00,,,0.00,WeatherTracker,2013-07-02 20:40:00,
2013-07-02 13:45:00,99.8,55.3,29.77,NNE,28,2.0,4.0,23,0.00,,,0.00,WeatherTracker,2013-07-02 20:45:00,
2013-07-02 13:50:00,100.1,57.9,29.77,NNE,33,0.0,4.0,25,0.00,,,0.00,WeatherTracker,2013-07-02 20:50:00,
2013-07-02 13:55:00,99.8,60.8,29.77,NNE,33,0.0,4.0,28,0.00,,,0.00,WeatherTracker,2013-07-02 20:55:00,
2013-07-02 14:00:00,97.9,58.2,29.77,NNE,33,0.0,1.0,27,0.00,,,0.00,WeatherTracker,2013-07-02 21:00:00,
2013-07-02 14:05:00,96.0,63.0,29.77,NNE,33,0.0,0.0,34,0.00,,,0.00,WeatherTracker,2013-07-02 21:05:00,
2013-07-02 14:11:00,93.4,60.8,29.77,SE,131,2.0,3.0,34,0.00,,,0.00,WeatherTracker,2013-07-02 21:11:00,
2013-07-02 14:16:00,91.9,56.0,29.77,SW,230,5.0,5.0,30,0.00,,,0.00,WeatherTracker,2013-07-02 21:16:00,
2013-07-02 14:21:00,90.8,55.9,29.77,SW,226,1.0,6.0,31,0.00,,,0.00,WeatherTracker,2013-07-02 21:21:00,
2013-07-02 14:26:00,90.1,54.4,29.77,SW,231,5.0,11.0,30,0.00,,,0.00,WeatherTracker,2013-07-02 21:26:00,
2013-07-02 14:31:00,90.0,54.4,29.78,WSW,245,2.0,11.0,30,0.00,,,0.00,WeatherTracker,2013-07-02 21:31:00,
2013-07-02 14:36:00,89.9,54.3,29.78,West,268,3.0,11.0,30,0.00,,,0.00,WeatherTracker,2013-07-02 21:36:00,
2013-07-02 14:41:00,89.6,55.8,29.78,SW,216,2.0,9.0,32,0.00,,,0.00,WeatherTracker,2013-07-02 21:41:00,
2013-07-02 14:46:00,89.4,55.6,29.78,SW,226,0.0,9.0,32,0.00,,,0.00,WeatherTracker,2013-07-02 21:46:00,
2013-07-02 14:51:00,89.3,57.2,29.79,East,91,10.0,10.0,34,0.00,,,0.00,WeatherTracker,2013-07-02 21:51:00,
2013-07-02 14:56:00,83.8,54.7,29.79,SE,131,15.0,36.0,37,0.00,,,0.00,WeatherTracker,2013-07-02 21:56:00,
2013-07-02 15:01:00,80.8,54.2,29.79,SSE,150,15.0,36.0,40,0.00,,,0.00,WeatherTracker,2013-07-02 22:01:00,
2013-07-02 15:06:00,81.4,52.6,29.80,ESE,118,13.0,32.0,37,0.00,,,0.00,WeatherTracker,2013-07-02 22:06:00,
2013-07-02 15:11:00,80.5,53.2,29.80,SE,138,20.0,26.0,39,0.00,,,0.00,WeatherTracker,2013-07-02 22:11:00,
2013-07-02 15:16:00,80.0,52.8,29.81,ESE,115,21.0,31.0,39,0.00,,,0.00,WeatherTracker,2013-07-02 22:16:00,
2013-07-02 15:21:00,79.2,53.4,29.82,ESE,108,12.0,31.0,41,0.00,,,0.00,WeatherTracker,2013-07-02 22:21:00,
2013-07-02 15:26:00,77.5,54.5,29.82,ESE,121,13.0,31.0,45,0.00,,,0.00,WeatherTracker,2013-07-02 22:26:00,
2013-07-02 15:31:00,76.8,55.6,29.81,East,100,10.0,23.0,48,0.00,,,0.00,WeatherTracker,2013-07-02 22:31:00,
2013-07-02 15:36:00,76.1,55.5,29.82,East,94,12.0,21.0,49,0.00,,,0.00,WeatherTracker,2013-07-02 22:36:00,
2013-07-02 15:41:00,77.3,53.0,29.82,South,169,20.0,20.0,43,0.00,,,0.00,WeatherTracker,2013-07-02 22:41:00,
2013-07-02 15:46:00,82.8,53.8,29.83,ENE,77,15.0,29.0,37,0.00,,,0.00,WeatherTracker,2013-07-02 22:46:00,
2013-07-02 15:51:00,79.5,53.7,29.84,East,94,13.0,29.0,41,0.00,,,0.00,WeatherTracker,2013-07-02 22:51:00,
2013-07-02 15:56:00,79.0,51.2,29.83,ESE,109,1.0,25.0,38,0.00,,,0.00,WeatherTracker,2013-07-02 22:56:00,
2013-07-02 16:01:00,80.0,52.8,29.84,East,81,5.0,21.0,39,0.00,,,0.00,WeatherTracker,2013-07-02 23:01:00,
2013-07-02 16:06:00,80.3,51.6,29.85,SE,134,7.0,16.0,37,0.00,,,0.00,WeatherTracker,2013-07-02 23:06:00,
2013-07-02 16:11:00,81.4,50.3,29.86,SW,221,2.0,11.0,34,0.00,,,0.00,WeatherTracker,2013-07-02 23:11:00,
2013-07-02 16:16:00,80.7,52.0,29.86,ENE,71,6.0,19.0,37,0.00,,,0.00,WeatherTracker,2013-07-02 23:16:00,
2013-07-02 16:21:00,80.2,55.0,29.88,NNE,12,0.0,19.0,42,0.00,,,0.00,WeatherTracker,2013-07-02 23:21:00,
2013-07-02 16:26:00,79.4,53.6,29.89,ESE,118,7.0,16.0,41,0.00,,,0.00,WeatherTracker,2013-07-02 23:26:00,
2013-07-02 16:29:00,79.4,52.3,29.90,SE,135,3.0,16.0,39,0.00,,,0.00,WeatherTracker,2013-07-02 23:29:00,
2013-07-02 16:34:00,79.3,53.5,29.90,ESE,113,6.0,19.0,41,0.00,,,0.00,WeatherTracker,2013-07-02 23:34:00,
2013-07-02 16:39:00,79.3,52.9,29.90,SE,133,7.0,19.0,40,0.00,,,0.00,WeatherTracker,2013-07-02 23:39:00,
2013-07-02 16:44:00,79.2,54.1,29.90,SSE,152,6.0,14.0,42,0.00,,,0.00,WeatherTracker,2013-07-02 23:44:00,
2013-07-02 16:49:00,77.9,54.2,29.90,SE,125,4.0,12.0,44,0.00,,,0.00,WeatherTracker,2013-07-02 23:49:00,
2013-07-02 16:54:00,78.2,53.2,29.90,East,98,7.0,12.0,42,0.00,,,0.00,WeatherTracker,2013-07-02 23:54:00,
2013-07-02 16:59:00,79.3,52.9,29.90,SE,144,4.0,10.0,40,0.00,,,0.00,WeatherTracker,2013-07-02 23:59:00,
2013-07-02 17:03:00,78.9,53.8,29.89,SSW,192,4.0,11.0,42,0.00,,,0.00,WeatherTracker,2013-07-03 00:03:00,
2013-07-02 17:06:00,79.0,53.9,29.89,SSW,202,4.0,11.0,42,0.00,,,0.00,WeatherTracker,2013-07-03 00:06:00,
2013-07-02 17:11:00,79.3,52.2,29.88,SSW,200,0.0,10.0,39,0.00,,,0.00,WeatherTracker,2013-07-03 00:11:00,
2013-07-02 17:22:00,78.8,54.4,29.88,South,186,4.0,7.0,43,0.00,,,0.00,WeatherTracker,2013-07-03 00:22:00,
2013-07-02 17:24:00,78.8,53.7,29.87,South,185,4.0,7.0,42,0.00,,,0.00,WeatherTracker,2013-07-03 00:24:00,
2013-07-02 17:28:00,79.0,54.6,29.87,South,173,5.0,7.0,43,0.00,,,0.00,WeatherTracker,2013-07-03 00:28:00,
2013-07-02 17:33:00,78.0,57.3,29.86,SE,140,2.0,7.0,49,0.00,,,0.00,WeatherTracker,2013-07-03 00:33:00,
2013-07-02 17:38:00,77.0,55.8,29.85,ESE,105,1.0,6.0,48,0.00,,,0.00,WeatherTracker,2013-07-03 00:38:00,
2013-07-02 17:43:00,78.1,52.5,29.84,SSW,210,1.0,5.0,41,0.00,,,0.00,WeatherTracker,2013-07-03 00:43:00,
2013-07-02 17:48:00,79.2,52.1,29.84,NNW,335,5.0,6.0,39,0.00,,,0.00,WeatherTracker,2013-07-03 00:48:00,
2013-07-02 17:53:00,79.2,55.4,29.83,North,350,1.0,10.0,44,0.00,,,0.00,WeatherTracker,2013-07-03 00:53:00,
2013-07-02 17:58:00,78.7,57.3,29.83,North,350,2.0,10.0,48,0.00,,,0.00,WeatherTracker,2013-07-03 00:58:00,
2013-07-02 18:00:00,78.3,58.1,29.83,North,356,1.0,7.0,50,0.00,,,0.00,WeatherTracker,2013-07-03 01:00:00,
2013-07-02 18:03:00,77.6,57.5,29.83,NNE,25,2.0,7.0,50,0.00,,,0.00,WeatherTracker,2013-07-03 01:03:00,
2013-07-02 18:08:00,76.8,56.2,29.83,NE,37,0.0,4.0,49,0.00,,,0.00,WeatherTracker,2013-07-03 01:08:00,
2013-07-02 18:10:00,76.7,56.1,29.83,NE,38,2.0,4.0,49,0.00,,,0.00,WeatherTracker,2013-07-03 01:10:00,
2013-07-02 18:15:00,76.4,56.9,29.83,NE,39,2.0,4.0,51,0.00,,,0.00,WeatherTracker,2013-07-03 01:15:00,
2013-07-02 18:20:00,76.4,58.0,29.84,SE,142,3.0,6.0,53,0.00,,,0.00,WeatherTracker,2013-07-03 01:20:00,
2013-07-02 18:25:00,75.8,58.0,29.83,SE,133,3.0,7.0,54,0.00,,,0.00,WeatherTracker,2013-07-03 01:25:00,
2013-07-02 18:26:00,75.7,57.9,29.83,SE,127,1.0,7.0,54,0.00,,,0.00,WeatherTracker,2013-07-03 01:26:00,
2013-07-02 18:31:00,75.3,58.0,29.84,SSW,207,5.0,7.0,55,0.00,,,0.00,WeatherTracker,2013-07-03 01:31:00,
2013-07-02 18:36:00,75.1,57.8,29.84,SSW,202,3.0,5.0,55,0.00,,,0.00,WeatherTracker,2013-07-03 01:36:00,
2013-07-02 18:41:00,75.3,57.0,29.84,SSW,202,0.0,5.0,53,0.00,,,0.00,WeatherTracker,2013-07-03 01:41:00,
2013-07-02 18:46:00,75.7,57.3,29.84,SSW,205,0.0,5.0,53,0.00,,,0.00,WeatherTracker,2013-07-03 01:46:00,
2013-07-02 18:49:00,75.8,58.5,29.84,SSW,204,0.0,5.0,55,0.00,,,0.00,WeatherTracker,2013-07-03 01:49:00,
2013-07-02 18:50:00,75.9,59.1,29.84,SSW,204,0.0,2.0,56,0.00,,,0.00,WeatherTracker,2013-07-03 01:50:00,
2013-07-02 18:55:00,75.9,59.1,29.84,SSW,205,0.0,0.0,56,0.00,,,0.00,WeatherTracker,2013-07-03 01:55:00,
2013-07-02 19:00:00,76.0,56.5,29.83,SSE,149,0.0,3.0,51,0.00,,,0.00,WeatherTracker,2013-07-03 02:00:00,
2013-07-02 19:06:00,76.4,56.9,29.83,SSE,149,0.0,3.0,51,0.00,,,0.00,WeatherTracker,2013-07-03 02:06:00,
2013-07-02 19:11:00,76.5,57.0,29.84,SSE,149,0.0,1.0,51,0.00,,,0.00,WeatherTracker,2013-07-03 02:11:00,
2013-07-02 19:16:00,76.3,58.4,29.83,SSE,149,0.0,1.0,54,0.00,,,0.00,WeatherTracker,2013-07-03 02:16:00,
2013-07-02 19:21:00,75.8,58.5,29.84,SSE,157,0.0,1.0,55,0.00,,,0.00,WeatherTracker,2013-07-03 02:21:00,
2013-07-02 19:26:00,75.0,58.7,29.84,SSE,157,1.0,3.0,57,0.00,,,0.00,WeatherTracker,2013-07-03 02:26:00,
2013-07-02 19:31:00,74.1,58.4,29.84,WNW,287,0.0,4.0,58,0.00,,,0.00,WeatherTracker,2013-07-03 02:31:00,
2013-07-02 19:32:00,74.0,58.7,29.84,WNW,287,0.0,4.0,59,0.00,,,0.00,WeatherTracker,2013-07-03 02:32:00,
2013-07-02 19:37:00,73.3,58.6,29.84,WNW,285,0.0,4.0,60,0.00,,,0.00,WeatherTracker,2013-07-03 02:37:00,
2013-07-02 19:42:00,73.1,58.4,29.84,WNW,286,0.0,3.0,60,0.00,,,0.00,WeatherTracker,2013-07-03 02:42:00,
2013-07-02 19:46:00,72.9,57.7,29.84,WNW,286,0.0,3.0,59,0.00,,,0.00,WeatherTracker,2013-07-03 02:46:00,
2013-07-02 19:51:00,72.9,57.2,29.83,WNW,294,0.0,3.0,58,0.00,,,0.00,WeatherTracker,2013-07-03 02:51:00,
2013-07-02 19:56:00,72.7,58.5,29.84,WNW,295,0.0,4.0,61,0.00,,,0.00,WeatherTracker,2013-07-03 02:56:00,
2013-07-02 20:01:00,72.2,58.0,29.84,NNW,331,2.0,4.0,61,0.00,,,0.00,WeatherTracker,2013-07-03 03:01:00,
2013-07-02 20:02:00,72.1,58.3,29.84,NNW,333,1.0,4.0,62,0.00,,,0.00,WeatherTracker,2013-07-03 03:02:00,
2013-07-02 20:07:00,71.3,58.0,29.84,East,100,3.0,5.0,63,0.00,,,0.00,WeatherTracker,2013-07-03 03:07:00,
2013-07-02 20:12:00,70.6,58.3,29.84,ESE,114,0.0,5.0,65,0.00,,,0.00,WeatherTracker,2013-07-03 03:12:00,
2013-07-02 20:17:00,69.9,58.0,29.84,ESE,115,2.0,5.0,66,0.00,,,0.00,WeatherTracker,2013-07-03 03:17:00,
2013-07-02 20:20:00,69.6,57.7,29.84,ESE,116,0.0,3.0,66,0.00,,,0.00,WeatherTracker,2013-07-03 03:20:00,
2013-07-02 20:25:00,69.3,57.4,29.84,ESE,115,0.0,4.0,66,0.00,,,0.00,WeatherTracker,2013-07-03 03:25:00,
2013-07-02 20:30:00,68.9,57.5,29.85,ESE,117,0.0,4.0,67,0.00,,,0.00,WeatherTracker,2013-07-03 03:30:00,
2013-07-02 20:35:00,68.5,57.5,29.85,ESE,119,0.0,3.0,68,0.00,,,0.00,WeatherTracker,2013-07-03 03:35:00,
2013-07-02 20:36:00,68.5,57.1,29.85,ESE,119,1.0,3.0,67,0.00,,,0.00,WeatherTracker,2013-07-03 03:36:00,
2013-07-02 20:40:00,68.1,57.5,29.85,ESE,119,0.0,3.0,69,0.00,,,0.00,WeatherTracker,2013-07-03 03:40:00,
2013-07-02 20:45:00,68.0,57.0,29.86,East,87,3.0,3.0,68,0.00,,,0.00,WeatherTracker,2013-07-03 03:45:00,
2013-07-02 20:49:00,66.9,56.4,29.86,NNW,327,0.0,3.0,69,0.00,,,0.00,WeatherTracker,2013-07-03 03:49:00,
2013-07-02 20:54:00,65.8,56.1,29.86,NNW,327,0.0,5.0,71,0.00,,,0.00,WeatherTracker,2013-07-03 03:54:00,
2013-07-02 20:59:00,65.5,56.2,29.87,NW,310,0.0,5.0,72,0.00,,,0.00,WeatherTracker,2013-07-03 03:59:00,
2013-07-02 21:00:00,65.4,56.1,29.86,NW,310,0.0,4.0,72,0.00,,,0.00,WeatherTracker,2013-07-03 04:00:00,
2013-07-02 21:01:00,65.4,56.1,29.86,NW,310,0.0,4.0,72,0.00,,,0.00,WeatherTracker,2013-07-03 04:01:00,
2013-07-02 21:03:00,65.3,56.0,29.87,NW,310,0.0,4.0,72,0.00,,,0.00,WeatherTracker,2013-07-03 04:03:00,
2013-07-02 21:04:00,65.2,56.3,29.87,NW,310,0.0,4.0,73,0.00,,,0.00,WeatherTracker,2013-07-03 04:04:00,
2013-07-02 21:09:00,65.0,56.5,29.87,NW,310,0.0,4.0,74,0.00,,,0.00,WeatherTracker,2013-07-03 04:09:00,
2013-07-02 21:14:00,64.9,56.4,29.87,NW,310,0.0,2.0,74,0.00,,,0.00,WeatherTracker,2013-07-03 04:14:00,
2013-07-02 21:19:00,65.0,56.1,29.88,SE,128,5.0,5.0,73,0.00,,,0.00,WeatherTracker,2013-07-03 04:19:00,
2013-07-02 21:24:00,65.8,55.3,29.89,NW,326,0.0,6.0,69,0.00,,,0.00,WeatherTracker,2013-07-03 04:24:00,
2013-07-02 21:29:00,66.2,55.3,29.89,NW,326,0.0,6.0,68,0.00,,,0.00,WeatherTracker,2013-07-03 04:29:00,
2013-07-02 21:32:00,66.4,55.5,29.89,NW,326,0.0,6.0,68,0.00,,,0.00,WeatherTracker,2013-07-03 04:32:00,
2013-07-02 21:37:00,66.7,56.2,29.89,NW,326,0.0,2.0,69,0.00,,,0.00,WeatherTracker,2013-07-03 04:37:00,
2013-07-02 21:42:00,65.8,56.1,29.90,NW,325,0.0,2.0,71,0.00,,,0.00,WeatherTracker,2013-07-03 04:42:00,
2013-07-02 21:45:00,65.4,55.0,29.90,NW,325,0.0,2.0,69,0.00,,,0.00,WeatherTracker,2013-07-03 04:45:00,
2013-07-02 21:46:00,65.5,55.1,29.90,NW,325,0.0,2.0,69,0.00,,,0.00,WeatherTracker,2013-07-03 04:46:00,
2013-07-02 21:51:00,65.8,54.5,29.90,NW,325,0.0,2.0,67,0.00,,,0.00,WeatherTracker,2013-07-03 04:51:00,
2013-07-02 21:53:00,65.9,54.6,29.91,NW,325,0.0,2.0,67,0.00,,,0.00,WeatherTracker,2013-07-03 04:53:00,
2013-07-02 21:58:00,66.9,54.7,29.90,NW,326,0.0,2.0,65,0.00,,,0.00,WeatherTracker,2013-07-03 04:58:00,
2013-07-02 22:03:00,66.5,54.4,29.90,NNW,327,1.0,2.0,65,0.00,,,0.00,WeatherTracker,2013-07-03 05:03:00,
2013-07-02 22:07:00,65.9,54.2,29.90,NW,325,0.0,3.0,66,0.00,,,0.00,WeatherTracker,2013-07-03 05:07:00,
2013-07-02 22:12:00,65.9,53.4,29.91,NW,325,0.0,3.0,64,0.00,,,0.00,WeatherTracker,2013-07-03 05:12:00,
2013-07-02 22:17:00,67.0,53.5,29.91,NW,325,0.0,3.0,62,0.00,,,0.00,WeatherTracker,2013-07-03 05:17:00,
2013-07-02 22:19:00,67.4,53.9,29.91,NW,325,0.0,3.0,62,0.00,,,0.00,WeatherTracker,2013-07-03 05:19:00,
2013-07-02 22:24:00,66.7,55.4,29.91,NW,325,0.0,1.0,67,0.00,,,0.00,WeatherTracker,2013-07-03 05:24:00,
2013-07-02 22:29:00,65.7,54.8,29.91,NW,325,0.0,1.0,68,0.00,,,0.00,WeatherTracker,2013-07-03 05:29:00,
2013-07-02 22:34:00,65.1,54.3,29.91,NW,325,1.0,3.0,68,0.00,,,0.00,WeatherTracker,2013-07-03 05:34:00,
2013-07-02 22:39:00,64.3,53.9,29.91,NW,325,0.0,3.0,69,0.00,,,0.00,WeatherTracker,2013-07-03 05:39:00,
2013-07-02 22:44:00,63.5,53.9,29.91,NNW,327,0.0,2.0,71,0.00,,,0.00,WeatherTracker,2013-07-03 05:44:00,
2013-07-02 22:49:00,62.9,54.1,29.91,NNW,327,0.0,3.0,73,0.00,,,0.00,WeatherTracker,2013-07-03 05:49:00,
2013-07-02 22:54:00,61.8,53.4,29.92,NNW,327,1.0,3.0,74,0.00,,,0.00,WeatherTracker,2013-07-03 05:54:00,
2013-07-02 22:57:00,61.3,53.3,29.92,NNW,327,0.0,1.0,75,0.00,,,0.00,WeatherTracker,2013-07-03 05:57:00,
2013-07-02 22:58:00,61.1,53.5,29.92,NNW,327,0.0,1.0,76,0.00,,,0.00,WeatherTracker,2013-07-03 05:58:00,
2013-07-02 23:02:00,60.5,53.3,29.92,NW,326,2.0,2.0,77,0.00,,,0.00,WeatherTracker,2013-07-03 06:02:00,
2013-07-02 23:07:00,60.1,53.6,29.92,NW,326,0.0,3.0,79,0.00,,,0.00,WeatherTracker,2013-07-03 06:07:00,
2013-07-02 23:12:00,60.2,53.3,29.93,NNW,331,0.0,3.0,78,0.00,,,0.00,WeatherTracker,2013-07-03 06:12:00,
2013-07-02 23:13:00,60.3,53.1,29.93,NNW,330,0.0,3.0,77,0.00,,,0.00,WeatherTracker,2013-07-03 06:13:00,
2013-07-02 23:16:00,60.4,52.8,29.93,NNW,331,0.0,3.0,76,0.00,,,0.00,WeatherTracker,2013-07-03 06:16:00,
2013-07-02 23:17:00,60.4,52.8,29.93,NNW,331,0.0,3.0,76,0.00,,,0.00,WeatherTracker,2013-07-03 06:17:00,
2013-07-02 23:22:00,60.1,52.9,29.93,NNW,331,1.0,3.0,77,0.00,,,0.00,WeatherTracker,2013-07-03 06:22:00,
2013-07-02 23:24:00,59.9,52.7,29.93,NNW,331,2.0,3.0,77,0.00,,,0.00,WeatherTracker,2013-07-03 06:24:00,
2013-07-02 23:27:00,59.6,52.7,29.93,NNW,331,1.0,3.0,78,0.00,,,0.00,WeatherTracker,2013-07-03 06:27:00,
2013-07-02 23:32:00,59.3,52.4,29.93,NNW,332,2.0,3.0,78,0.00,,,0.00,WeatherTracker,2013-07-03 06:32:00,
2013-07-02 23:33:00,59.4,52.5,29.93,NNW,341,2.0,3.0,78,0.00,,,0.00,WeatherTracker,2013-07-03 06:33:00,
2013-07-02 23:38:00,59.0,52.5,29.94,SE,129,4.0,4.0,79,0.00,,,0.00,WeatherTracker,2013-07-03 06:38:00,
2013-07-02 23:43:00,58.6,52.4,29.94,SE,135,2.0,4.0,80,0.00,,,0.00,WeatherTracker,2013-07-03 06:43:00,
2013-07-02 23:48:00,58.3,52.2,29.94,SSE,154,4.0,4.0,80,0.00,,,0.00,WeatherTracker,2013-07-03 06:48:00,
2013-07-02 23:53:00,58.4,52.6,29.94,SSE,156,3.0,5.0,81,0.00,,,0.00,WeatherTracker,2013-07-03 06:53:00,
2013-07-02 23:55:00,58.4,52.6,29.94,SSE,156,2.0,5.0,81,0.00,,,0.00,WeatherTracker,2013-07-03 06:55:00,